Location: Dead Woman Crossing
(43.5369°N, 106.3228°W)
Time: 15:57:36
(UTC+00:00)

O/OREOS (USA 219) - Pass Details

Date: 09 July 2022
Orbit: 621 x 646 km, 72.0° (Epoch: 22 May)

Event Time Altitude Azimuth Distance (km) Brightness Sun altitude
Rises 06:51:52 0° 324° (NW) 2,966 ? -24.0°
Reaches altitude 10° 06:54:29 10° 311° (NW) 2,052 ? -24.0°
Enters shadow 06:57:58 24° 262° (W) 1,338 ? -24.1°
